This is the latest recevied weather packets stored in our database for station/object OH7GGX-14. If no packets are shown the sender has not sent any weather packets the latest 10 day(s).
| Time | Temp. | Humidity | Pressure | Rain* | Wind** | Luminosity | Snow |
|---|---|---|---|---|---|---|---|
| 1777439509 | 2.22° C | 73% | 1021.1 hPa | 0 mm | - | - | - |
| 1777438909 | 1.67° C | 74% | 1021 hPa | 0 mm | - | - | - |
| 1777438309 | 1.67° C | 73% | 1020.9 hPa | 0 mm | - | - | - |
| 1777437709 | 1.67° C | 74% | 1020.8 hPa | 0 mm | - | - | - |
| 1777437109 | 1.67° C | 74% | 1020.7 hPa | 0 mm | - | - | - |
| 1777436509 | 1.67° C | 74% | 1020.7 hPa | 0 mm | - | - | - |
| 1777435909 | 1.67° C | 74% | 1020.7 hPa | 0 mm | - | - | - |
| 1777434709 | 1.67° C | 75% | 1020.6 hPa | 0 mm | - | - | - |
| 1777433509 | 1.67° C | 75% | 1020.4 hPa | 0 mm | - | - | - |
| 1777432909 | 1.67° C | 75% | 1020.4 hPa | 0 mm | - | - | - |
| 1777432309 | 1.67° C | 76% | 1020.3 hPa | 0 mm | - | - | - |
| 1777431709 | 1.67° C | 75% | 1020.4 hPa | 0 mm | - | - | - |
| 1777429909 | 1.67° C | 76% | 1020.1 hPa | 0 mm | - | - | - |
| 1777422109 | 1.67° C | 76% | 1019.3 hPa | 0 mm | - | - | - |
| 1777408310 | 2.78° C | 76% | 1018.1 hPa | 0 mm | - | - | - |
| 1777407710 | 2.78° C | 76% | 1018.2 hPa | 0 mm | - | - | - |
| 1777407110 | 2.78° C | 77% | 1018.2 hPa | 0 mm | - | - | - |
| 1777406510 | 2.78° C | 77% | 1018.2 hPa | 0 mm | - | - | - |
| 1777404110 | 2.22° C | 79% | 1017.8 hPa | 0 mm | - | - | - |
| 1777403510 | 2.22° C | 79% | 1017.7 hPa | 0 mm | - | - | - |
| 1777402910 | 2.78° C | 79% | 1017.7 hPa | 0 mm | - | - | - |
| 1777397510 | 2.78° C | 79% | 1017.4 hPa | 0 mm | - | - | - |
| 1777396910 | 2.78° C | 78% | 1017.2 hPa | 0 mm | - | - | - |
| 1777393910 | 2.78° C | 76% | 1016.6 hPa | 0 mm | - | - | - |
| 1777383110 | 2.78° C | 79% | 1014.9 hPa | 0 mm | - | - | - |
* Rain latest hour (hover to see other rain measurements)
** Current wind speed in m/s (hover to see current wind gust speed)